Location: *
(44.1392°N, 4.8079°E)
Time: 09:03:10
(UTC+00:00)

Cosmos 1743 Rocket - Pass Details

Date: 21 June 2021
Orbit: 604 x 633 km, 82.6° (Epoch: 02 August)

Event Time Altitude Azimuth Distance (km) Brightness Sun altitude
Exits shadow 02:45:43 - 173° (S) 2,602 6.4 -10.5°
Reaches altitude 10° 02:47:18 10° 169° (S) 1,974 5.8 -10.3°
Maximum altitude 02:51:32 51° 94° (E) 781 4.4 -9.8°
Drops below altitude 10° 02:55:51 10° 18° (NNE) 2,008 7.3 -9.3°
Sets 02:58:08 0° 14° (NNE) 2,924 8.2 -9.0°
